• MPC Preparation (Info)

  • MPEC 2010-K27 : 2010 KV7

    The following Minor Planet Electronic Circular may be linked-to from your own Web pages, but must not otherwise be redistributed electronically.

    A form allowing access to any MPEC is at the bottom of this page.


    Read MPEC 2010-K26 Read MPEC 2010-K28


    M.P.E.C. 2010-K27                                Issued 2010 May 20, 15:35 UT
    
         The Minor Planet Electronic Circulars contain information on unusual
             minor planets and routine data on comets.  They are published
       on behalf of Commission 20 of the International Astronomical Union by the
              Minor Planet Center, Smithsonian Astrophysical Observatory,
                              Cambridge, MA 02138, U.S.A.
    
                 Prepared using the Tamkin Foundation Computer Network
    
                                  MPC@CFA.HARVARD.EDU
           URL https://www.minorplanetcenter.org/iau/mpc.html  ISSN 1523-6714
    
                                       2010 KV7
    
    Observations:
         K10K07V* C2010 05 17.20110 12 17 41.02 -05 15 57.6          20.5 V EK027G96
         K10K07V  C2010 05 17.20648 12 17 38.07 -05 15 42.9          20.8 V EK027G96
         K10K07V  C2010 05 17.21184 12 17 35.19 -05 15 26.9          21.6 V EK027G96
         K10K07V  C2010 05 17.21715 12 17 32.28 -05 15 11.5          20.6 V EK027G96
         K10K07V  C2010 05 19.19638 12 00 16.81 -03 29 12.7          20.9 V EK027G96
         K10K07V  C2010 05 19.20113 12 00 13.60 -03 28 55.2          21.0 V EK027G96
         K10K07V  C2010 05 19.20590 12 00 10.51 -03 28 37.5          19.9 V EK027G96
         K10K07V  C2010 05 19.21062 12 00 07.34 -03 28 20.3          20.6 V EK027G96
         K10K07V  C2010 05 19.22027 12 00 01.04 -03 27 45.2          21.4 V EK027G96
         K10K07V  C2010 05 19.22881 11 59 55.12 -03 27 12.5          20.6 V EK027G96
         K10K07V  C2010 05 19.23737 11 59 49.44 -03 26 40.9          21.8 V EK027G96
         K10K07V  C2010 05 19.24596 11 59 43.77 -03 26 11.0                 EK027G96
         K10K07V tC2010 05 20.24139 11 49 21.85 -02 21 38.3          20.3 V EK027291
         K10K07V tC2010 05 20.24965 11 49 15.68 -02 21 03.7          21.1 V EK027291
    
    Observer details:
    291 LPL/Spacewatch II.  Observer J. V. Scotti.  1.8-m f/2.7 reflector + CCD.
    G96 Mt. Lemmon Survey.  Observer S. M. Larson.  Measurers J. D. Ahern,
        E. C. Beshore, A. Boattini, G. J. Garradd, A. R. Gibbs, A. D. Grauer,
        R. E. Hill, R. A. Kowalski, S. M. Larson, R. H. McNaught.  1.5-m reflector
        + CCD.
    
    Orbital elements:
    2010 KV7                                                 Earth MOID = 0.0013 AU
    Epoch 2010 July 23.0 TT = JDT 2455400.5                 MPC
    M  10.71722              (2000.0)            P               Q
    n   0.73444809     Peri.   36.31348     +0.37619795     +0.92652377
    a   1.2166397      Node   255.78543     -0.85138205     +0.34339119
    e   0.2191868      Incl.    0.31721     -0.36554578     +0.15374065
    P   1.34           H   26.0           G   0.15           U   8
    Residuals in seconds of arc
    100517 G96  0.2-  0.7+    100519 G96  1.1-  0.7-    100519 G96  0.8-  0.7+
    100517 G96  0.4-  0.0     100519 G96  0.4+  0.4-    100519 G96  0.4-  1.0-
    100517 G96  0.2+  0.6+    100519 G96  0.2+  0.5-    100520 291  0.4+  0.3+
    100517 G96  0.1-  0.7+    100519 G96 (2.4+  0.7-)   100520 291  0.4-  0.4+
    100519 G96  0.7-  0.9-    100519 G96  1.0-  0.6+
    
    Ephemeris:
    2010 KV7                 a,e,i = 1.22, 0.22, 0                   q = 0.9500
    Date    TT    R. A. (2000) Decl.     Delta      r     Elong.  Phase     V
    2010 05 14    12 39.10   -07 21.7    0.0478   1.047   138.8    39.5    21.1
    2010 05 15    12 33.11   -06 46.3    0.0452   1.044   136.3    42.0    21.0
    2010 05 16    12 26.54   -06 07.1    0.0428   1.041   133.5    44.8    21.0
    2010 05 17    12 19.28   -05 23.2    0.0403   1.038   130.6    47.7    20.9
    2010 05 18    12 11.23   -04 34.0    0.0379   1.035   127.5    50.8    20.9
    2010 05 19    12 02.24   -03 38.5    0.0356   1.032   124.1    54.2    20.8
    2010 05 20    11 52.14   -02 35.6    0.0334   1.029   120.4    58.0    20.8
    2010 05 21    11 40.73   -01 24.0    0.0312   1.026   116.4    62.1    20.7
    2010 05 22    11 27.75   -00 02.3    0.0291   1.023   111.9    66.6    20.7
    2010 05 23    11 12.92   +01 31.1    0.0272   1.021   106.9    71.6    20.7
    2010 05 24    10 55.92   +03 17.6    0.0254   1.018   101.4    77.2    20.8
    2010 05 25    10 36.42   +05 17.9    0.0238   1.015    95.1    83.5    20.8
    2010 05 26    10 14.11   +07 31.7    0.0224   1.012    88.2    90.5    21.0
    2010 05 27    09 48.82   +09 56.7    0.0212   1.010    80.6    98.3    21.2
    2010 05 28    09 20.61   +12 27.6    0.0204   1.007    72.2   106.7    21.5
    2010 05 29    08 49.87   +14 56.4    0.0199   1.005    63.4   115.6    22.0
    2010 05 30    08 17.47   +17 13.4    0.0198   1.002    54.3   124.7    22.7
    
    Carl W. Hergenrother         (C) Copyright 2010 MPC           M.P.E.C. 2010-K27
    

    Read MPEC 2010-K26 Read MPEC 2010-K28


    MPEC number:

    Enter an MPEC number in one of the following forms:

    • 1997-B01 (the full form)
    • J97B01 (the packed version of the full form)
    • B01 (the abbreviated form)